Flag for U.S.A. Weather past 2 weeks in San Jose, California, U.S.A.

Now
59 °F

Scattered clouds.


Feels Like: 58 °F
Forecast: 50 / 76 °F
Wind: 8 mph from North

Location: San Jose International Airport


UV Index: 5 (Moderate)

Visibility: 10 mi


Pressure: 30.11 "Hg

Humidity: 78%

Dew point: 52 °F

Location of San JoseLocation

Historic Weather in San Jose

°F

San Jose temperature yesterday

Maximum temperature yesterday: 70 °F (at 12:53 PM)
Minimum temperature yesterday: 53 °F (at 4:53 AM)
Average temperature yesterday: 60 °F

Past Weeks' High & Low Weather Summary

 TemperatureHumidityPressure
High86 °F (Apr 8, 2:53 PM)93% (Apr 9, 5:53 AM)30.23 "Hg (Apr 9, 5:53 AM)
Low46 °F (Apr 6, 5:53 AM)23% (Apr 10, 2:53 PM)29.80 "Hg (Apr 17, 5:53 AM)
Average61 °F67%30.00 "Hg
* Reported Apr 4 6:53 PM — Apr 19 6:53 PM, San Jose, Weather by CustomWeather, © 2014

Note: Actual official high and low records may vary slightly from our data, if they occured in-between our weather recording intervals... More about our weather records

Advertising

Historic Weather Conditions — Data for Previous 24 hours

 ConditionsComfort  
Time TempWeatherWind HumidityBarometerVisibility
6:53 PM
Apr 19
62 °FScattered clouds.10 mph70%30.10 "Hg10 mi
5:53 PM64 °FPassing clouds.13 mph63%30.10 "Hg10 mi
4:53 PM66 °FPassing clouds.16 mph61%30.09 "Hg10 mi
3:53 PM67 °FScattered clouds.15 mph51%30.09 "Hg10 mi
2:53 PM69 °FScattered clouds.17 mph44%30.10 "Hg10 mi
1:53 PM69 °FScattered clouds.13 mph36%30.09 "Hg10 mi
12:53 PM67 °FPassing clouds.10 mph35%30.09 "Hg10 mi
11:53 AM64 °FPassing clouds.9 mph41%30.10 "Hg10 mi
10:53 AM62 °FPassing clouds.7 mph39%30.09 "Hg10 mi
9:53 AM58 °FPassing clouds.No wind58%30.08 "Hg10 mi
8:53 AM54 °FPassing clouds.5 mph74%30.07 "Hg10 mi
7:53 AM52 °FPassing clouds.No wind77%30.06 "Hg10 mi
6:53 AM50 °FPassing clouds.5 mph83%30.03 "Hg10 mi
5:53 AM51 °FPassing clouds.No wind80%30.02 "Hg10 mi
4:53 AM51 °FClear.3 mph80%30.01 "Hg10 mi
3:53 AM52 °FClear.6 mph77%30.00 "Hg10 mi
2:53 AM53 °FClear.3 mph74%29.97 "Hg10 mi
1:53 AM53 °FClear.No wind74%29.96 "Hg10 mi
12:53 AM53 °FClear.No wind74%29.97 "Hg10 mi
11:53 PM
Apr 18
55 °FClear.5 mph67%29.96 "Hg10 mi
10:53 PM56 °FClear.5 mph67%29.95 "Hg10 mi
9:53 PM57 °FClear.5 mph64%29.95 "Hg10 mi
8:53 PM58 °FClear.7 mph62%29.93 "Hg10 mi
Weather by CustomWeather, © 2014

See weather overview